Weather Roundup
Issued by NWS

Home | Current Version | Previous Version | Text Only | Print | Product List | Glossary On
Versions: 1 2 3 4 5 6 7 8 9 10 11 12 13 14 15 16 17 18 19 20 21 22 23 24 25 26 27 28 29 30 31 32 33 34 35 36 37 38 39 40 41 42 43 44 45 46 47 48 49 50
082
NZUS93 KARX 022259
HRRWXR

CURRENT HOURLY OBSERVATIONS ACROSS
MUCH OF THE UPPER MISSISSIPPI VALLEY
NATIONAL WEATHER SERVICE LA CROSSE WI
600 PM CDT MON MAY 02 2016


...SOUTHEAST MINNESOTA...


CITY           SKY/WX    TMP DP  RH WIND       PRES   REMARKS
ROCHESTER      MOSUNNY   61  38  42 SW8       30.02F
ROCHESTER/MAYO CLOUDY    62  35  36 E6        30.02S
WINONA         MOSUNNY   61  34  36 CALM      30.02S
AUSTIN         MOSUNNY   63  36  36 SW3       30.02S
ALBERT LEA     PTSUNNY   63  36  36 SW3       30.02S
DODGE CENTER   PTSUNNY   61  37  41 CALM      30.02S
PRESTON        SUNNY     59  35  40 CALM      30.03F
OWATONNA       SUNNY     64  30  27 W7        30.01F
FARIBAULT      NOT AVBL
$$

...ELSEWHERE IN MINNESOTA...


CITY           SKY/WX    TMP DP  RH WIND       PRES   REMARKS
MINNEAPOLIS    MOSUNNY   66  30  26 VRB7      30.00F
INTNL FALLS    SUNNY     68  27  21 SW9       29.94F
DULUTH         MOSUNNY   62  30  29 SE12      29.98F
RED WING       SUNNY     66  30  26 S3        29.99F
REDWOOD FALLS  SUNNY     65  32  29 S6        29.99F
MANKATO        MOSUNNY   64  34  32 SW7       30.01F
WORTHINGTON    CLOUDY    61  36  39 W5        30.03F
FAIRMONT       SUNNY     63  32  31 NW3       30.02F
$$

...SOUTHWEST WISCONSIN...


CITY           SKY/WX    TMP DP  RH WIND       PRES   REMARKS
LA CROSSE      CLOUDY    64  33  31 CALM      30.01S
PRAIRIE DU CHI MOSUNNY   62  35  36 CALM      30.02S
BOSCOBEL       PTSUNNY   64  33  31 CALM      30.02S
LONE ROCK      NOT AVBL
PLATTEVILLE    MOSUNNY   60  35  40 N3        30.02S
FORT MC COY    CLOUDY    62  34  34 CALM      30.02S
MAUSTON-NEW LI CLOUDY    62  34  34 CALM      30.00F
VIROQUA        CLOUDY    60  33  36 CALM      30.02F
WIS DELLS      CLOUDY    63  27  26 NW3       30.00S
$$

...ELSEWHERE IN WISCONSIN...


CITY           SKY/WX    TMP DP  RH WIND       PRES   REMARKS
MILWAUKEE      MOSUNNY   54  34  46 NE14      30.03S
MADISON        MOSUNNY   62  33  33 E7        30.00F
GREEN BAY      SUNNY     63  32  31 SE7       30.01S
EAU CLAIRE     NOT AVBL
BLACK RVR FLS  CLOUDY    64  30  28 W5        30.01S
MEDFORD        MOSUNNY   60  34  37 W5        30.01S
WAUSAU         CLOUDY    63  33  32 SW3       29.98F
WIS RAPIDS     MOSUNNY   63  28  26 N8        30.02S
MARSHFIELD     MOSUNNY   63  32  31 NW5       30.00F
RICE LAKE      SUNNY     64  29  26 N5        30.01F
$$

...NORTHEAST IOWA...


CITY           SKY/WX    TMP DP  RH WIND       PRES   REMARKS
WATERLOO       MOSUNNY   61  36  39 CALM      30.03S
DUBUQUE        PTSUNNY   59  37  44 CALM      30.03S
DECORAH        PTSUNNY   61  36  39 CALM      30.02F
MASON CITY     SUNNY     62  38  40 W5        30.04F
CHARLES CITY   CLOUDY    61  32  33 CALM      30.04S
OELWEIN        CLOUDY    61  37  41 SE6       30.04S
$$

...ELSEWHERE IN IOWA...


CITY           SKY/WX    TMP DP  RH WIND       PRES   REMARKS
DES MOINES     CLOUDY    61  39  44 NE5       30.04F
IOWA CITY      CLOUDY    57  42  57 N3        30.05F
FORT DODGE     MOSUNNY   61  39  44 CALM      30.05S
MARSHALLTOWN   CLOUDY    60  40  47 CALM      30.03F
CEDAR RAPIDS   CLOUDY    57  43  59 E3        30.03S
$$

...NORTHERN ILLINOIS...


CITY           SKY/WX    TMP DP  RH WIND       PRES   REMARKS
CHICAGO-OHARE  PTSUNNY   56  32  40 NE12      30.01S
CHICAGO-MIDWAY PTSUNNY   55  36  48 NE12      30.02S
MOLINE         CLOUDY    60  38  43 NE6       30.02S
ROCKFORD       PTSUNNY   59  35  40 NE8       30.03S
PEORIA         CLOUDY    57  43  59 NW5       30.01F
$$

NOTE: "FAIR" INDICATES FEW OR NO CLOUDS BELOW 12,000 FEET WITH NO
SIGNIFICANT WEATHER AND/OR OBSTRUCTIONS TO VISIBILITY. WIND
SPEEDS ARE IN MILES-PER-HOUR.




USA.gov is the U.S. government's official web portal to all federal, state and local government web resources and services.